Sac City, IA

12:33 AM CDT on April 28, 2017 (GMT -0500)
Lake City | | Change Station

Elev 1191 ft 42.30 °N, 94.75 °W | Updated 27 seconds ago

Partly Cloudy
Partly Cloudy
34.5 °F
Feels Like 34 °F
N
2.0
Wind Variable Wind from East
Gusts 2.5 mph

Today
High -- | Low -- °F
--% Chance of Precip.
Yesterday
High -- | Low -- °F
Precip. -- in
Pressure 29.83 in
Visibility 10.0 miles
Clouds Clear
Windchill 34 °F
Dew Point -4 °F
Humidity 19%
Rainfall 0.00 in
Snow Depth Not available.
6:18 AM 8:16 PM
Waxing Crescent, 4% visible
METAR KSLB 280535Z AUTO 05014G21KT 10SM CLR 02/M00 A2983 RMK AO2
Pressure 29.83 in
Visibility 10.0 miles
Clouds Clear
Windchill 34 °F
Dew Point -4 °F
Humidity 19%
Rainfall 0.00 in
Snow Depth Not available.
6:18 AM 8:16 PM
Waxing Crescent, 4% visible
METAR KSLB 280535Z AUTO 05014G21KT 10SM CLR 02/M00 A2983 RMK AO2

Get Severe Weather Alerts

Thanks for signing up!

Be on the lookout for a verification email in your inbox.

You'll start receiving the daily forecast at 8 AM.

×

10-Day Weather Forecast

Almanac

Astronomy

Apr. 28, 2017 Rise Set
Actual Time
Civil Twilight
Nautical Twilight
Astronomical Twilight
Moon
Length of Visible Light
Length of Day
Tomorrow will be .
, % of the Moon is Illuminated

Today's Extremes

State Highs State Lows

Community

WunderPhotos

WunderBlog® & News

Nearby

Air Quality

  Air Quality AQ Index Pollutant
Not available.

Snow Depth

Station Depth Elevation

Earthquake Activity

City Distance Mag. Time & Date
Minimum magnitude displayed is 2.5.

Coastal Water Temperatures

Place Temperature

Stations

Nearby Weather Stations

Station Location Temp. Windchill Dew Point Humidity Wind Precip. Elev Updated Type
                   

Watches & Warnings

There are currently no watches in effect.